GW2011 Weather Reports


Display with metric or nautical units.
time (UTC)temp
F
wind
direction
speed
MPH
gust
MPH
rain 1hr
in
rain 24hr
in
rain mn
in
humidity
%
barometer
mb
20260902164019 77 0 0.0 4.0 0.00 0.00 0.00 68 1010.1
20260902163516 77 113 1.0 5.0 0.00 0.00 0.00 70 1009.9
20260902163037 77 135 2.0 6.0 0.00 0.00 0.00 71 1009.8
20260902162519 77 138 2.0 6.0 0.00 0.00 0.00 73 1009.8
20260902162020 76 129 0.0 3.0 0.00 0.00 0.00 74 1009.8
20260902161540 76 0 0.0 7.0 0.00 0.00 0.00 74 1009.8
20260902161018 76 113 2.0 7.0 0.00 0.00 0.00 74 1009.8
20260902160520 76 138 1.0 3.0 0.00 0.00 0.00 75 1009.6
20260902160047 76 101 1.0 3.0 0.00 0.00 0.00 75 1009.8
20260902155518 76 108 1.0 2.0 0.00 0.00 0.00 74 1010.1
20260902155018 76 100 0.0 2.0 0.00 0.00 0.00 75 1010.1
20260902154539 76 0 1.0 2.0 0.00 0.00 0.00 75 1010.2
20260902154019 76 97 1.0 3.0 0.00 0.00 0.00 76 1010.3
20260902153519 75 105 1.0 3.0 0.00 0.00 0.00 77 1010.3
20260902153037 74 130 1.0 3.0 0.00 0.00 0.00 77 1010.4
20260902152518 74 126 1.0 3.0 0.00 0.00 0.00 77 1010.6
20260902152020 74 121 1.0 3.0 0.00 0.00 0.00 78 1010.6
20260902151537 74 125 1.0 3.0 0.00 0.00 0.00 77 1010.6
20260902151019 74 125 1.0 3.0 0.00 0.00 0.00 77 1010.5
20260902150520 74 117 0.0 3.0 0.00 0.00 0.00 78 1010.3
20260902150035 73 119 1.0 3.0 0.00 0.00 0.00 79 1010.2
20260902145518 73 119 1.0 3.0 0.00 0.00 0.00 78 1010.3
20260902145023 72 121 2.0 3.0 0.00 0.00 0.00 79 1010.2
20260902144538 72 109 1.0 3.0 0.00 0.00 0.00 79 1010.4
20260902144018 71 109 0.0 2.0 0.00 0.00 0.00 80 1010.4
20260902143516 71 0 0.0 1.0 0.00 0.00 0.00 80 1010.2
20260902143037 71 0 0.0 3.0 0.00 0.00 0.00 81 1010.1
20260902142518 71 0 0.0 3.0 0.00 0.00 0.00 81 1010.0
20260902142020 70 0 0.0 3.0 0.00 0.00 0.00 80 1009.7
20260902141536 70 101 1.0 3.0 0.00 0.00 0.00 81 1009.6
20260902141018 70 0 1.0 3.0 0.00 0.00 0.00 81 1009.6
20260902140518 70 101 0.0 2.0 0.00 0.00 0.00 80 1010.0
20260902140046 70 0 0.0 2.0 0.00 0.00 0.00 79 1009.9
20260902135517 70 0 0.0 2.0 0.00 0.00 0.00 79 1010.0
20260902135018 70 101 0.0 2.0 0.00 0.00 0.00 79 1010.1
20260902134539 70 0 0.0 2.0 0.00 0.00 0.00 79 1010.2
20260902134018 70 0 0.0 2.0 0.00 0.00 0.00 79 1010.2
20260902133521 70 101 0.0 2.0 0.00 0.00 0.00 79 1010.3
20260902133035 69 0 0.0 2.0 0.00 0.00 0.00 81 1010.2
20260902132517 69 101 0.0 2.0 0.00 0.00 0.00 81 1010.1
20260902132020 69 0 0.0 2.0 0.00 0.00 0.00 81 1010.4
20260902131539 68 0 0.0 2.0 0.00 0.00 0.00 82 1010.3
20260902131020 68 134 0.0 2.0 0.00 0.00 0.00 83 1010.1
20260902130520 67 134 0.0 2.0 0.00 0.00 0.00 84 1010.3
20260902130040 67 0 0.0 3.0 0.00 0.00 0.00 84 1010.4
20260902125517 66 0 0.0 3.0 0.00 0.00 0.00 85 1010.3
20260902125018 66 139 0.0 2.0 0.00 0.00 0.00 85 1010.4
20260902124537 66 0 0.0 0.0 0.00 0.00 0.00 85 1010.2
20260902124017 66 0 0.0 0.0 0.00 0.00 0.00 85 1010.2
20260902123519 66 0 0.0 0.0 0.00 0.00 0.00 85 1010.3
20260902123036 66 0 0.0 0.0 0.00 0.00 0.00 85 1010.4
20260902122520 65 0 0.0 0.0 0.00 0.00 0.00 85 1010.3
20260902122019 65 0 0.0 0.0 0.00 0.00 0.00 84 1010.3
20260902121539 66 0 0.0 0.0 0.00 0.00 0.00 84 1010.2
20260902121020 66 0 0.0 0.0 0.00 0.00 0.00 84 1010.0
20260902120518 66 0 0.0 0.0 0.00 0.00 0.00 84 1010.1
20260902120036 66 0 0.0 0.0 0.00 0.00 0.00 83 1010.0
20260902115517 66 0 0.0 0.0 0.00 0.00 0.00 83 1010.0
20260902115017 66 0 0.0 1.0 0.00 0.00 0.00 83 1010.0
20260902114608 66 0 0.0 1.0 0.00 0.00 0.00 82 1010.0
20260902114018 66 0 0.0 2.0 0.00 0.00 0.00 82 1010.0
20260902113521 66 139 0.0 2.0 0.00 0.00 0.00 81 1009.9
20260902113035 66 0 0.0 1.0 0.00 0.00 0.00 81 1010.1
20260902112519 66 139 0.0 1.0 0.00 0.00 0.00 80 1010.4
20260902112021 66 0 0.0 1.0 0.00 0.00 0.00 81 1010.4
20260902111535 66 0 0.0 1.0 0.00 0.00 0.00 80 1010.0
20260902111020 66 0 0.0 1.0 0.00 0.00 0.00 81 1010.2
20260902110518 66 0 0.0 1.0 0.00 0.00 0.00 82 1010.3
20260902110037 66 0 0.0 1.0 0.00 0.00 0.00 82 1010.2
20260902105519 66 0 0.0 1.0 0.00 0.00 0.00 82 1010.0
20260902105017 66 0 0.0 0.0 0.00 0.00 0.00 83 1010.1
20260902104536 66 0 0.0 0.0 0.00 0.00 0.00 83 1010.4
20260902104018 66 0 0.0 0.0 0.00 0.00 0.00 82 1010.3
20260902103518 67 0 0.0 0.0 0.00 0.00 0.00 82 1010.2
20260902103045 67 0 0.0 0.0 0.00 0.00 0.00 81 1010.3
20260902102518 67 0 0.0 0.0 0.00 0.00 0.00 81 1010.1
20260902102018 67 0 0.0 0.0 0.00 0.00 0.00 80 1010.3
20260902101534 67 0 0.0 0.0 0.00 0.00 0.00 79 1010.4
20260902101019 67 0 0.0 0.0 0.00 0.00 0.00 79 1010.2
20260902100520 67 0 0.0 0.0 0.00 0.00 0.00 79 1010.2
20260902100055 67 0 0.0 0.0 0.00 0.00 0.00 80 1010.1
20260902095518 67 0 0.0 0.0 0.00 0.00 0.00 79 1010.0
20260902095019 67 0 0.0 0.0 0.00 0.00 0.00 80 1010.0
20260902094535 67 0 0.0 0.0 0.00 0.00 0.00 80 1010.0
20260902094018 67 0 0.0 1.0 0.00 0.00 0.00 79 1010.1
20260902093519 67 0 0.0 1.0 0.00 0.00 0.00 79 1009.8
20260902093047 67 0 0.0 2.0 0.00 0.00 0.00 79 1009.6
20260902092517 67 115 0.0 2.0 0.00 0.00 0.00 79 1009.4
20260902092022 67 0 0.0 1.0 0.00 0.00 0.00 81 1009.8
20260902091537 67 0 0.0 1.0 0.00 0.00 0.00 81 1010.1
20260902091019 67 0 0.0 1.0 0.00 0.00 0.00 80 1010.2
20260902090518 67 0 0.0 1.0 0.00 0.00 0.00 79 1010.1
20260902090037 67 0 0.0 1.0 0.00 0.00 0.00 81 1010.2
20260902085520 67 0 0.0 1.0 0.00 0.00 0.00 81 1010.2
20260902085020 67 0 0.0 1.0 0.00 0.00 0.00 80 1010.1
20260902084541 67 0 0.0 1.0 0.00 0.00 0.00 80 1009.9
20260902084021 68 0 0.0 2.0 0.00 0.00 0.00 80 1010.1
20260902083520 68 0 0.0 2.0 0.00 0.00 0.00 79 1010.1
20260902083039 68 0 0.0 3.0 0.00 0.00 0.00 78 1010.0
20260902082519 69 0 0.0 4.0 0.00 0.00 0.00 78 1010.2
20260902082018 69 135 0.0 5.0 0.00 0.00 0.00 79 1010.0
20260902081540 69 135 0.0 5.0 0.00 0.00 0.00 79 1010.1
20260902081018 68 151 0.0 4.0 0.00 0.00 0.00 79 1010.2
20260902080518 68 0 0.0 1.0 0.00 0.00 0.00 79 1010.2
20260902080037 69 0 0.0 1.0 0.00 0.00 0.00 79 1010.0
20260902075517 69 0 0.0 3.0 0.00 0.00 0.00 78 1010.0
20260902075021 70 0 0.0 5.0 0.00 0.00 0.00 76 1009.8
20260902074539 70 123 3.0 5.0 0.00 0.00 0.00 78 1009.7
20260902074020 70 144 2.0 4.0 0.00 0.00 0.00 77 1009.8
20260902073520 70 0 0.0 5.0 0.00 0.00 0.00 78 1009.7
20260902073036 70 138 2.0 5.0 0.00 0.00 0.00 77 1009.8
20260902072519 69 126 0.0 4.0 0.00 0.00 0.00 79 1009.8
20260902072016 69 140 0.0 3.0 0.00 0.00 0.00 79 1009.6
20260902071544 69 106 1.0 3.0 0.00 0.00 0.00 81 1009.4
20260902071023 69 0 0.0 1.0 0.00 0.00 0.00 80 1009.4
20260902070521 70 0 0.0 7.0 0.00 0.00 0.00 79 1009.4
20260902070035 70 131 0.0 7.0 0.00 0.00 0.00 80 1009.5
20260902065520 69 127 0.0 3.0 0.00 0.00 0.00 78 1009.8
20260902065020 69 88 1.0 3.0 0.00 0.00 0.00 81 1009.7
20260902064540 68 111 0.0 3.0 0.00 0.00 0.00 80 1009.8
20260902064017 68 0 0.0 1.0 0.00 0.00 0.00 80 1010.0
20260902063521 68 215 0.0 1.0 0.00 0.00 0.00 82 1010.0
20260902063036 68 0 0.0 2.0 0.00 0.00 0.00 83 1010.1
20260902062519 68 215 0.0 2.0 0.00 0.00 0.00 84 1010.2
20260902062021 68 0 0.0 3.0 0.00 0.00 0.00 85 1010.1
20260902061021 67 90 0.0 3.0 0.00 0.00 0.00 88 1010.1
20260902060519 67 0 0.0 2.0 0.00 0.00 0.00 88 1009.9
20260902060051 66 71 0.0 2.0 0.00 0.00 0.00 88 1009.9
20260902055520 66 228 0.0 2.0 0.00 0.00 0.00 88 1010.0
20260902055020 66 0 0.0 1.0 0.00 0.00 0.00 88 1009.9
20260902054542 66 0 0.0 0.0 0.00 0.00 0.00 88 1010.0
20260902054017 66 0 0.0 0.0 0.00 0.00 0.00 88 1010.0
20260902053520 67 0 0.0 1.0 0.00 0.00 0.00 88 1010.2
20260902053040 67 0 0.0 1.0 0.00 0.00 0.00 87 1010.2
20260902052521 67 0 0.0 1.0 0.00 0.00 0.00 88 1010.2
20260902052026 67 0 0.0 2.0 0.00 0.00 0.00 88 1010.2
20260902051540 67 0 0.0 2.0 0.00 0.00 0.00 89 1010.4
20260902051018 67 0 0.0 0.0 0.00 0.00 0.00 87 1010.5
20260902050518 67 0 0.0 1.0 0.00 0.00 0.00 87 1010.4
20260902050043 67 0 0.0 1.0 0.00 0.00 0.00 88 1010.6
20260902045519 67 0 0.0 1.0 0.00 0.00 0.00 87 1011.1
20260902045020 67 0 0.0 1.0 0.00 0.00 0.00 87 1011.1
20260902044539 67 0 0.0 0.0 0.00 0.00 0.00 87 1011.1
20260902044020 67 0 0.0 1.0 0.00 0.00 0.00 87 1011.2
20260902043520 67 0 0.0 1.0 0.00 0.00 0.00 87 1011.3
20260902043036 67 0 0.0 0.0 0.00 0.00 0.00 86 1011.2
20260902042519 67 0 0.0 0.0 0.00 0.00 0.00 86 1011.3
20260902042019 68 0 0.0 1.0 0.00 0.00 0.00 86 1011.1
20260902041557 68 0 0.0 1.0 0.00 0.00 0.00 86 1011.2
20260902041020 68 0 0.0 1.0 0.00 0.00 0.00 86 1011.1
20260902040518 68 0 0.0 0.0 0.00 0.00 0.00 87 1011.2
20260902040045 68 0 0.0 0.0 0.00 0.00 0.00 85 1011.1
20260902035523 68 0 0.0 1.0 0.00 0.00 0.00 86 1011.1
20260902035022 67 0 0.0 2.0 0.00 0.00 0.00 87 1011.0
20260902034538 67 0 0.0 2.0 0.00 0.00 0.00 87 1011.0
20260902034019 67 0 0.0 1.0 0.00 0.00 0.00 87 1010.7
20260902033517 68 0 0.0 0.0 0.00 0.00 0.00 87 1010.7
20260902033041 68 0 0.0 0.0 0.00 0.00 0.00 87 1010.7
20260902032519 68 0 0.0 0.0 0.00 0.00 0.00 86 1011.1
20260902032024 68 0 0.0 0.0 0.00 0.00 0.00 87 1011.0
20260902031540 68 0 0.0 0.0 0.00 0.00 0.00 87 1011.1
20260902031041 68 0 0.0 0.0 0.00 0.00 0.00 85 1011.0
20260902030523 68 0 0.0 0.0 0.00 0.00 0.00 85 1010.9
20260902030035 68 0 0.0 0.0 0.00 0.00 0.00 85 1011.0
20260902025518 69 0 0.0 0.0 0.00 0.00 0.00 84 1011.0
20260902025018 69 0 0.0 0.0 0.00 0.00 0.00 84 1011.1
20260902024544 69 0 0.0 0.0 0.00 0.00 0.00 84 1011.0
20260902024018 69 0 0.0 0.0 0.00 0.00 0.00 84 1011.1
20260902023517 70 0 0.0 0.0 0.00 0.00 0.00 83 1011.0
20260902023039 70 0 0.0 0.0 0.00 0.00 0.00 82 1011.1
20260902022517 70 0 0.0 0.0 0.00 0.00 0.00 82 1011.0
20260902022020 70 0 0.0 0.0 0.00 0.00 0.00 81 1011.0
20260902021546 70 0 0.0 0.0 0.00 0.00 0.00 81 1011.0
20260902021021 70 0 0.0 0.0 0.00 0.00 0.00 81 1011.0
20260902020521 70 0 0.0 0.0 0.00 0.00 0.00 80 1010.9
20260902020038 70 0 0.0 0.0 0.00 0.00 0.00 80 1010.8
20260902015520 70 0 0.0 1.0 0.00 0.00 0.00 80 1010.5
20260902015021 70 0 0.0 1.0 0.00 0.00 0.00 80 1010.2
20260902014538 71 0 0.0 1.0 0.00 0.00 0.00 82 1010.2
20260902014019 71 0 0.0 1.0 0.00 0.00 0.00 83 1010.4
20260902013519 71 0 0.0 1.0 0.00 0.00 0.00 80 1010.7
20260902013037 71 0 0.0 0.0 0.00 0.00 0.00 79 1010.4
20260902012519 71 0 0.0 0.0 0.00 0.00 0.00 79 1010.7
20260902012019 72 0 0.0 0.0 0.00 0.00 0.00 80 1010.6
20260902011538 72 0 0.0 0.0 0.00 0.00 0.00 79 1010.4
20260902011021 72 0 0.0 0.0 0.00 0.00 0.00 79 1010.6
20260902010517 72 0 0.0 0.0 0.00 0.00 0.00 78 1010.4
20260902010037 72 0 0.0 0.0 0.00 0.00 0.00 78 1010.3
20260902005518 72 0 0.0 1.0 0.00 0.00 0.00 77 1010.4
20260902005020 73 0 0.0 1.0 0.00 0.00 0.00 77 1010.6
20260902004538 73 0 0.0 0.0 0.00 0.00 0.00 77 1010.6
20260902004023 73 0 0.0 0.0 0.00 0.00 0.00 76 1010.5
20260902003519 74 0 0.0 0.0 0.00 0.00 0.00 76 1010.6
20260902003040 74 0 0.0 0.0 0.00 0.00 0.00 75 1010.5
20260902002519 74 0 0.0 0.0 0.00 0.00 0.00 74 1010.5
20260902002019 74 0 0.0 0.0 0.00 0.00 0.00 76 1010.7
20260902001534 74 0 0.0 0.0 0.00 0.00 0.00 75 1010.6
20260902001019 75 0 0.0 1.0 0.00 0.00 0.00 74 1010.4
20260902000519 76 0 0.0 1.0 0.00 0.00 0.00 73 1010.5
20260902000037 76 0 0.0 1.0 0.00 0.00 0.00 72 1010.6
20260901235519 76 0 0.0 1.0 0.00 0.00 0.00 73 1010.7
20260901235017 77 0 0.0 1.0 0.00 0.00 0.00 71 1010.7
20260901234539 77 0 0.0 0.0 0.00 0.00 0.00 71 1010.6
20260901234017 77 0 0.0 0.0 0.00 0.00 0.00 72 1010.3
20260901233520 78 0 0.0 0.0 0.00 0.00 0.00 66 1010.5
20260901233052 78 0 0.0 0.0 0.00 0.00 0.00 65 1010.7
20260901232522 78 0 0.0 0.0 0.00 0.00 0.00 67 1010.9
20260901232021 79 0 0.0 0.0 0.00 0.00 0.00 64 1011.0
20260901231538 79 0 0.0 0.0 0.00 0.00 0.00 63 1011.0
20260901231020 79 0 0.0 1.0 0.00 0.00 0.00 60 1011.0
20260901230522 79 0 0.0 1.0 0.00 0.00 0.00 59 1011.1
20260901230038 79 0 0.0 2.0 0.00 0.00 0.00 61 1011.1
20260901225521 79 0 0.0 2.0 0.00 0.00 0.00 59 1011.0
20260901225017 80 0 0.0 2.0 0.00 0.00 0.00 61 1011.1
20260901224536 79 226 0.0 2.0 0.00 0.00 0.00 58 1011.0
20260901224020 79 225 0.0 2.0 0.00 0.00 0.00 58 1011.0
20260901223521 79 225 0.0 2.0 0.00 0.00 0.00 59 1011.0
20260901223040 79 0 0.0 2.0 0.00 0.00 0.00 62 1011.0
20260901222521 79 0 0.0 1.0 0.00 0.00 0.00 59 1011.0
20260901222022 79 0 0.0 1.0 0.00 0.00 0.00 59 1011.1
20260901221541 79 0 0.0 1.0 0.00 0.00 0.00 57 1011.1
20260901221024 79 0 0.0 1.0 0.00 0.00 0.00 58 1011.1
20260901220519 79 0 0.0 1.0 0.00 0.00 0.00 59 1011.0
20260901220042 79 0 0.0 1.0 0.00 0.00 0.00 61 1011.0
20260901215517 79 0 0.0 1.0 0.00 0.00 0.00 64 1011.1
20260901215020 80 0 0.0 0.0 0.00 0.00 0.00 65 1011.2
20260901214539 80 0 0.0 1.0 0.00 0.00 0.00 61 1011.1
20260901214021 80 0 0.0 1.0 0.00 0.00 0.00 65 1011.1
20260901213518 80 0 0.0 1.0 0.00 0.00 0.00 62 1011.1
20260901213052 81 0 0.0 1.0 0.00 0.00 0.00 61 1011.0
20260901212519 82 0 0.0 1.0 0.00 0.00 0.00 57 1011.0
20260901212018 82 0 0.0 0.0 0.00 0.00 0.00 58 1011.0
20260901211539 82 0 0.0 0.0 0.00 0.00 0.00 57 1011.0
20260901211019 82 0 0.0 0.0 0.00 0.00 0.00 54 1011.0
20260901210520 82 0 0.0 0.0 0.00 0.00 0.00 53 1010.9
20260901210040 82 0 0.0 0.0 0.00 0.00 0.00 55 1010.8
20260901205519 83 0 0.0 0.0 0.00 0.00 0.00 53 1010.7
20260901205018 83 0 0.0 0.0 0.00 0.00 0.00 52 1010.9
20260901204539 83 0 0.0 0.0 0.00 0.00 0.00 50 1011.0
20260901204018 83 0 0.0 0.0 0.00 0.00 0.00 52 1010.9
20260901203520 83 0 0.0 0.0 0.00 0.00 0.00 53 1011.1
20260901203056 83 0 0.0 0.0 0.00 0.00 0.00 50 1011.0
20260901202518 83 0 0.0 1.0 0.00 0.00 0.00 56 1011.0
20260901202022 83 0 0.0 1.0 0.00 0.00 0.00 54 1010.7
20260901201540 83 0 0.0 0.0 0.00 0.00 0.00 51 1010.6
20260901201021 83 0 0.0 0.0 0.00 0.00 0.00 52 1010.9
20260901200519 83 0 0.0 0.0 0.00 0.00 0.00 48 1011.0
20260901200041 82 0 0.0 0.0 0.00 0.00 0.00 49 1011.0
20260901195520 82 0 0.0 1.0 0.00 0.00 0.00 50 1010.9
20260901195022 82 0 0.0 2.0 0.00 0.00 0.00 49 1011.1
20260901194542 82 157 0.0 3.0 0.00 0.00 0.00 48 1011.2
20260901194020 82 157 1.0 3.0 0.00 0.00 0.00 51 1011.3
20260901193519 82 129 1.0 3.0 0.00 0.00 0.00 48 1011.3
20260901193041 82 126 1.0 2.0 0.00 0.00 0.00 52 1011.3
20260901192519 81 126 1.0 2.0 0.00 0.00 0.00 51 1011.3
20260901192018 81 0 1.0 3.0 0.00 0.00 0.00 50 1011.4
20260901191538 80 126 1.0 3.0 0.00 0.00 0.00 56 1011.3
20260901191018 80 126 1.0 3.0 0.00 0.00 0.00 54 1011.3
20260901190519 81 126 0.0 1.0 0.00 0.00 0.00 54 1011.3
20260901190037 81 126 0.0 2.0 0.00 0.00 0.00 55 1011.3
20260901185520 81 126 0.0 3.0 0.00 0.00 0.00 55 1011.3
20260901185017 81 126 1.0 3.0 0.00 0.00 0.00 54 1011.3
20260901184539 80 126 2.0 3.0 0.00 0.00 0.00 55 1011.5
20260901184019 80 126 2.0 4.0 0.00 0.00 0.00 53 1011.3
20260901183524 80 126 2.0 4.0 0.00 0.00 0.00 58 1011.3
20260901183049 80 126 2.0 3.0 0.00 0.00 0.00 56 1011.4
20260901182521 80 126 1.0 2.0 0.00 0.00 0.00 54 1011.3
20260901182020 80 126 1.0 2.0 0.00 0.00 0.00 54 1011.3
20260901181540 80 0 0.0 1.0 0.00 0.00 0.00 57 1011.4
20260901181022 80 126 0.0 1.0 0.00 0.00 0.00 53 1011.5
20260901180520 79 0 0.0 1.0 0.00 0.00 0.00 54 1011.8
20260901180040 79 126 0.0 2.0 0.00 0.00 0.00 55 1011.7
20260901175520 79 126 1.0 2.0 0.00 0.00 0.00 56 1011.8
20260901175018 78 126 0.0 3.0 0.00 0.00 0.00 55 1011.8
20260901174538 78 126 2.0 4.0 0.00 0.00 0.00 61 1012.0
20260901174020 78 126 3.0 4.0 0.00 0.00 0.00 61 1012.1
20260901173518 78 124 1.0 5.0 0.00 0.00 0.00 64 1011.9
20260901173044 78 125 3.0 5.0 0.00 0.00 0.00 64 1011.9
20260901172519 77 121 3.0 4.0 0.00 0.00 0.00 64 1011.9
20260901172022 77 131 2.0 4.0 0.00 0.00 0.00 63 1012.1
20260901171545 77 128 3.0 4.0 0.00 0.00 0.00 66 1012.1
20260901171019 76 131 2.0 4.0 0.00 0.00 0.00 66 1012.0
20260901170519 76 131 0.0 4.0 0.00 0.00 0.00 65 1012.0
20260901170040 76 132 3.0 4.0 0.00 0.00 0.00 68 1012.0
20260901165520 76 132 2.0 5.0 0.00 0.00 0.00 66 1012.1
20260901165018 75 141 3.0 5.0 0.00 0.00 0.00 68 1011.9
20260901164547 76 138 3.0 4.0 0.00 0.00 0.00 69 1012.0